Theta_e
323 322 321 322 322 325 326 326 325 326 325 322 320 320 319 325 326 326 325 324 322 321 320 318 319 320 320 321 321 319 317 318 319 317 315 318 324 324 330 329 327 326 327
320 319 320 321 322 323 324 324 324 324 323 322 324 322 322 324 326 322 324 322 319 318 315 316 316 318 317 319 321 319 315 316 319 313 312 310 315 315 323 318 321 320 322
319 319 320 320 320 320 323 323 323 324 324 324 322 321 322 321 317 318 316 316 317 316 316 316 317 320 318 318 319 318 318 314 316 318 312 307 305 310 316 318 319 320 321
322 320 320 319 319 319 321 322 322 323 322 323 320 320 314 312 314 314 315 315 316 316 316 316 318 318 318 317 318 318 317 315 312 315 315 317 315 306 304 311 313 317 319
322 320 320 320 319 319 319 322 322 322 322 322 319 314 312 312 313 311 311 313 313 316 316 316 316 317 315 317 317 317 316 313 311 312 311 311 311 312 308 304 307 312 319
323 322 322 322 319 319 319 320 321 321 321 320 317 315 312 311 308 309 308 309 310 312 314 315 317 317 315 316 318 317 317 315 314 311 312 309 307 305 305 303 304 304 308
323 321 319 318 317 317 318 318 318 318 319 318 315 314 312 312 311 311 310 310 310 312 312 317 316 317 317 317 317 314 314 313 311 311 309 309 307 308 306 304 302 302 305
323 321 320 318 317 318 318 318 317 316 317 317 315 314 312 311 311 314 312 313 313 314 318 317 315 314 315 315 316 314 313 315 313 312 311 309 307 309 308 304 301 299 300
323 321 320 320 319 318 318 317 316 317 317 315 314 314 312 314 314 317 317 314 313 314 312 312 311 313 315 314 316 313 313 313 312 312 313 309 308 309 308 306 305 302 297
322 322 321 321 319 319 317 317 318 316 316 314 313 313 314 315 316 318 315 315 315 315 315 315 316 312 314 316 316 314 314 313 311 310 311 311 310 308 307 306 305 304 302
322 322 320 321 318 318 317 317 316 316 315 313 313 314 314 315 315 314 315 316 316 314 312 313 314 315 311 312 314 314 311 309 310 311 309 308 309 307 306 305 304 303 303
322 322 321 319 317 316 315 315 316 314 314 313 313 313 316 315 316 316 317 317 316 314 312 314 313 312 310 311 310 310 312 310 308 310 308 307 308 307 306 303 303 301 303
321 322 320 318 317 316 316 314 314 313 313 314 312 315 316 317 316 315 313 316 315 315 312 312 312 311 308 307 308 309 310 311 308 307 307 307 306 304 303 302 300 300 300
322 321 319 317 317 317 315 314 313 314 314 313 313 314 316 316 317 315 316 314 313 312 313 312 311 310 306 305 306 307 309 309 307 309 308 307 305 303 301 298 299 298 299
319 320 318 318 317 316 316 315 314 314 315 313 312 314 315 316 315 315 316 314 316 313 313 311 312 311 305 300 302 305 306 309 309 309 309 306 305 306 303 299 298 298 298
319 320 318 318 318 317 315 314 314 313 315 312 312 313 314 313 314 315 316 316 311 312 313 311 311 311 302 300 301 302 304 308 309 307 307 306 306 304 304 304 304 304 300
320 319 319 318 319 318 317 315 315 315 314 311 312 311 312 310 313 313 313 314 316 312 314 312 312 310 307 299 299 301 303 308 308 308 308 305 303 303 300 302 304 304 306
320 320 320 319 319 319 317 317 315 314 312 311 312 310 310 309 310 313 312 315 316 315 313 311 312 313 306 299 298 299 307 307 308 308 307 307 305 302 298 300 300 301 302
323 321 322 321 320 318 317 316 313 313 312 310 311 309 308 308 310 310 313 315 316 314 312 311 311 310 310 300 298 299 306 307 307 305 308 306 303 299 296 300 300 300 300
323 322 321 320 319 318 318 316 313 312 310 310 309 308 309 310 310 313 314 316 315 314 311 311 314 311 310 301 298 299 304 305 305 306 306 300 300 296 296 299 300 298 299
322 321 320 317 317 318 317 314 312 310 312 314 309 310 312 313 314 314 317 315 314 314 314 312 313 314 311 311 300 299 303 304 303 303 304 305 298 296 296 295 298 299 298
318 319 318 315 315 315 315 312 311 313 313 311 310 311 314 312 312 316 316 316 316 314 312 311 311 312 313 306 299 298 298 303 304 304 305 306 297 295 297 298 297 295 297
317 317 316 312 313 313 313 309 311 313 312 311 312 313 314 314 317 316 315 313 312 310 309 309 308 308 309 311 301 298 297 297 298 303 303 298 296 298 299 298 297 299 299
316 316 314 310 308 309 309 311 312 313 312 311 313 314 315 315 317 313 312 312 313 310 308 307 307 308 309 311 310 307 307 302 303 304 302 302 300 300 300 301 301 301 297
316 317 315 310 307 308 309 311 312 313 311 312 313 314 313 312 313 312 312 313 317 311 309 307 307 307 307 303 297 296 300 299 298 294 303 305 303 302 300 300 300 299 297
315 314 313 310 307 308 310 312 313 313 312 312 310 311 311 313 312 312 314 303 301 299 296 296 301 308 298 294 293 293 292 291 292 301 302 302 300 298 298 299 298 299 296
Wind_Speed
13 12 12 12 12 10 9 9 9 8 7 6 6 6 6 3 3 3 5 5 4 9 11 10 11 9 9 7 7 5 9 8 8 8 10 9 5 6 5 3 4 5 4
14 13 13 12 11 10 9 9 8 8 7 5 5 5 5 3 3 5 6 8 11 9 9 8 8 8 6 5 6 7 6 7 5 5 7 5 4 9 6 8 5 8 7
15 13 12 11 11 10 9 8 7 7 6 7 5 6 5 5 6 6 8 9 10 8 7 7 7 7 6 6 6 7 8 6 6 7 4 5 4 9 7 6 5 7 5
16 14 13 12 11 10 9 8 7 6 7 7 7 8 7 6 7 8 8 6 8 8 7 8 7 7 6 6 5 7 6 8 8 7 7 5 2 3 6 7 7 4 4
16 15 14 12 12 11 9 7 7 6 6 6 8 7 7 6 7 6 7 9 7 5 7 8 9 6 5 5 6 6 7 6 6 3 4 5 4 4 3 5 6 4 2
17 16 14 14 11 10 10 7 7 6 5 7 10 7 6 6 6 6 6 5 5 4 7 8 6 5 6 5 4 5 4 3 4 7 6 5 3 4 5 4 5 6 6
18 17 18 14 12 12 10 8 7 6 6 8 10 7 6 7 6 6 4 5 4 4 5 4 4 3 4 5 6 6 6 7 5 6 6 7 6 5 5 5 8 7 6
17 18 17 14 13 11 9 7 7 6 7 10 8 6 8 4 3 4 2 2 2 2 3 4 5 6 7 7 5 4 5 5 4 6 7 6 6 5 3 3 4 7 7
17 16 18 14 13 12 8 7 7 7 7 8 8 5 5 4 3 3 3 0 2 1 2 3 6 5 5 6 5 4 4 5 5 5 5 5 5 7 7 4 5 5 5
16 15 15 12 13 12 9 8 6 7 7 8 6 5 5 4 3 0 5 5 5 6 6 7 6 6 6 4 5 3 2 3 3 3 6 4 3 6 7 8 7 7 5
17 16 15 13 14 13 11 8 7 7 8 8 6 4 1 4 4 4 4 3 4 5 5 5 5 5 5 5 6 6 6 6 5 5 6 9 8 6 6 8 8 8 6
16 18 16 15 13 12 12 7 6 7 8 7 6 4 3 4 4 3 2 3 3 5 5 5 5 7 8 8 8 8 7 6 6 7 8 5 6 7 7 7 8 8 9
16 18 17 15 13 12 11 9 8 8 10 7 5 5 4 4 4 4 5 4 4 5 4 5 5 6 8 8 9 8 8 6 7 6 6 6 7 7 6 7 8 8 8
15 17 16 14 12 11 9 8 8 8 9 6 5 4 3 2 2 2 1 1 5 3 4 4 5 6 8 7 8 9 10 5 5 5 5 5 6 5 5 7 7 8 9
16 16 15 13 11 11 9 8 8 7 7 7 3 4 1 3 3 3 3 1 1 4 5 4 4 5 6 5 6 7 9 7 3 2 4 5 7 10 10 6 9 9 8
16 16 14 14 12 11 10 7 7 7 7 8 5 4 6 2 3 0 2 3 3 3 4 3 4 5 5 5 7 5 7 8 5 2 2 5 6 8 9 11 16 13 6
15 15 13 13 11 10 9 8 7 7 7 6 7 7 4 1 1 3 2 3 2 3 3 3 4 4 5 2 7 10 6 7 6 6 3 4 5 5 6 8 15 12 13
14 14 12 12 11 9 9 8 7 7 7 6 6 4 3 3 2 1 4 3 4 3 2 3 1 1 4 4 4 9 6 8 5 7 3 2 3 2 5 5 8 11 12
13 12 12 12 10 10 8 8 8 7 8 7 6 4 3 2 3 5 3 1 2 1 4 4 4 5 4 9 5 4 7 5 5 8 6 2 3 4 9 4 9 12 11
12 13 14 12 10 8 8 7 7 7 6 8 5 4 3 3 4 3 2 0 3 3 4 3 6 6 6 9 10 6 4 6 4 7 2 2 6 9 6 4 7 9 10
14 14 12 10 8 7 7 7 7 6 6 3 5 5 4 2 3 3 3 2 5 4 5 7 7 7 9 10 12 10 5 5 3 6 5 5 9 12 12 8 8 11 10
14 13 10 10 8 6 5 6 7 6 5 5 6 5 4 5 5 4 4 5 6 7 9 10 10 8 11 17 11 15 12 8 5 6 5 5 11 9 10 13 13 12 6
11 10 10 11 8 5 5 6 7 7 5 5 5 5 5 4 4 3 5 5 6 9 8 6 5 5 6 4 11 11 11 12 5 6 9 15 7 11 8 6 12 7 6
11 9 14 12 9 6 6 6 8 7 7 6 6 4 2 3 2 4 5 5 4 4 5 4 4 4 4 2 0 3 4 7 5 3 7 8 4 9 12 6 5 6 6
9 8 8 11 10 6 6 7 8 6 6 7 6 4 5 6 6 8 7 5 5 5 4 5 4 3 3 4 3 3 4 4 4 7 6 4 6 4 7 7 7 6 6
9 7 10 11 11 9 10 10 7 9 6 5 5 5 5 2 6 5 5 14 14 11 13 14 4 3 7 5 5 7 7 9 4 4 7 5 6 8 9 8 8 5 9
Wind_Direction
135 136 125 122 114 103 90 82 67 38 27 19 15 359 344 3 38 29 40 36 14 6 4 8 3 356 358 13 14 350 338 317 12 354 333 302 80 42 78 92 72 46 27
149 147 141 133 120 112 101 83 76 56 38 1 20 340 316 329 43 32 52 28 43 34 21 7 347 345 342 346 5 16 339 351 3 357 308 332 20 360 49 40 36 21 19
160 159 149 137 137 123 110 93 74 76 48 357 23 345 344 2 22 5 32 41 37 29 17 349 330 322 349 2 5 17 353 344 352 3 20 349 9 321 27 8 36 33 29
161 164 158 153 139 133 117 101 85 48 54 39 33 15 8 15 17 15 20 28 32 17 1 343 349 2 5 2 355 27 2 12 1 357 354 34 26 354 335 352 8 20 19
162 167 160 160 150 141 123 113 97 77 59 55 53 27 29 23 24 17 9 17 1 17 11 360 348 3 13 8 12 21 22 23 8 351 339 0 4 15 360 335 328 320 273
158 163 166 150 151 139 142 123 109 85 65 56 72 58 50 36 43 38 22 19 4 346 8 353 344 359 8 357 355 5 48 13 25 6 344 341 331 349 351 334 338 339 325
159 164 153 157 163 168 134 127 96 84 74 75 74 46 69 68 51 34 24 27 8 11 340 317 351 322 3 358 48 7 23 14 52 19 352 333 16 356 353 352 346 336 325
169 167 154 164 175 135 137 119 112 94 88 84 76 63 64 65 45 56 17 42 27 10 330 307 300 54 39 359 60 18 18 11 50 40 359 351 4 344 352 345 336 333 335
165 163 151 171 159 140 143 130 121 108 106 108 102 88 88 69 42 357 287 207 349 220 352 355 21 58 58 9 17 71 30 17 360 30 1 348 1 339 351 356 1 10 344
158 164 153 162 129 142 128 113 114 108 108 97 94 110 135 148 192 27 49 61 20 5 7 5 360 24 58 29 351 351 14 23 2 360 0 353 346 0 8 355 11 357 353
163 161 153 147 135 140 147 159 145 144 119 111 114 109 127 75 49 73 62 54 70 28 12 8 350 360 65 354 345 343 27 10 359 5 348 17 34 12 16 357 351 340 348
167 154 152 150 153 169 150 143 124 135 111 119 136 148 125 126 117 88 73 61 55 71 17 4 348 38 33 19 6 3 352 14 355 14 40 21 23 11 18 1 333 332 332
170 148 151 152 169 170 149 147 177 133 124 134 151 196 140 106 66 358 20 357 12 86 48 350 19 50 48 20 360 353 340 4 33 30 14 6 42 27 9 338 337 338 333
154 146 149 158 167 153 153 150 139 147 135 149 163 158 113 114 65 19 158 297 19 23 56 359 38 65 67 23 355 341 323 53 23 10 357 48 52 46 7 353 335 326 315
150 144 146 156 155 147 145 161 146 143 142 137 190 111 249 175 102 34 342 52 263 359 60 12 56 66 68 21 350 329 331 323 358 29 349 29 57 56 21 350 326 314 312
152 146 151 150 149 146 159 157 153 153 156 137 162 178 263 186 90 318 328 358 57 72 52 17 360 78 64 345 325 327 315 317 322 326 322 325 73 37 349 341 316 303 315
146 145 153 143 146 148 157 160 162 157 155 153 190 194 225 271 136 291 28 35 353 35 45 3 339 94 111 334 333 332 316 296 301 322 321 344 68 35 337 335 325 326 316
138 138 141 136 145 146 144 155 166 165 156 176 221 167 204 237 180 212 64 14 8 30 53 282 285 73 175 219 309 318 312 306 349 324 349 324 71 40 291 316 325 321 322
127 134 128 131 140 145 152 159 165 173 153 199 189 163 188 200 105 79 80 21 275 235 246 217 228 229 225 219 229 306 309 326 347 321 291 316 359 308 260 353 328 322 313
119 121 123 130 137 144 147 166 169 158 174 216 131 164 183 131 110 120 105 263 297 229 277 239 242 235 240 205 218 229 278 304 335 316 181 281 278 273 321 324 307 310 324
114 117 127 135 134 137 147 188 153 164 187 194 159 159 170 174 146 170 208 214 254 262 263 266 260 238 222 241 206 212 248 275 321 320 320 309 239 346 329 316 300 291 326
124 133 138 120 118 143 171 166 160 167 185 181 187 168 178 244 168 179 228 251 250 254 255 250 257 260 236 235 184 221 218 255 260 287 299 313 348 309 345 321 290 310 339
143 142 129 121 110 127 180 167 168 176 229 197 202 199 201 222 228 226 252 264 255 240 275 296 6 359 3 41 178 232 238 255 252 281 304 306 312 325 311 269 320 69 34
148 156 131 131 126 156 172 197 167 185 225 192 219 223 223 248 256 290 276 237 271 347 318 325 317 317 332 50 103 321 294 269 273 315 317 339 55 289 262 321 3 80 48
145 156 151 136 136 167 201 181 191 213 197 205 218 222 225 199 229 224 251 260 237 227 245 249 250 279 314 47 22 23 341 345 307 322 302 350 322 301 348 351 356 86 26
142 156 135 138 147 186 187 191 189 210 206 207 214 230 254 274 234 244 245 228 238 230 241 244 246 57 105 95 7 336 322 283 317 318 339 314 359 7 337 338 359 47 17